Flag for Austria Past Weather in Feldkirchen in Kärnten, Carinthia, Austria — Yesterday and Last 2 Weeks

Now
79 °F

Passing clouds.


Feels Like: 79 °F
Forecast: 58 / 79 °F
Wind: N/A

Location: Klagenfurt-Flughafen

Current Time: Jul 28, 2017 at 3:02:52 pm

Latest Report: Jul 28, 2017 at 2:00 pm


Visibility: 19 mi

Pressure: 29.84 "Hg (28.05 "Hg at 541m altitude)

Humidity: 38%

Dew Point: 51 °F

Location of Feldkirchen in KärntenLocation

Past Weather in Feldkirchen in Kärnten — Graph

°F

Feldkirchen in Kärnten Temperature Yesterday

Maximum temperature yesterday: 76 °F (at 4:00 pm)
Minimum temperature yesterday: 54 °F (at 6:00 am)
Average temperature yesterday: 64 °F

High & Low Weather Summary for the Past Weeks

 TemperatureHumidityPressure
High90 °F (Jul 22, 5:00 pm)96% (Jul 25, 3:00 am)30.29 "Hg (Jul 25, 3:00 am)
Low46 °F (Jul 16, 6:00 am)29% (Jul 15, 3:00 pm)29.64 "Hg (Jul 25, 5:00 pm)
Average67 °F64%29.94 "Hg
* Reported Jul 13 1:00 pm — Jul 28 1:00 pm, Feldkirchen in Kärnten. Weather by CustomWeather, © 2017

Note: Actual official high and low records may vary slightly from our data, if they occured in-between our weather recording intervals... More about our weather records

Advertising

Feldkirchen in Kärnten Weather History for the Previous 24 Hours

Scroll right to see more
 ConditionsComfort  
Time TempWeatherWind HumidityBarometerVisibility
1:00 pm
Fri, Jul 28
77 °FScattered clouds.N/A42%29.85 "Hg8 mi
12:00 pm75 °FPassing clouds.N/A49%29.87 "Hg25 mi
11:00 am72 °FPassing clouds.N/A56%29.89 "Hg22 mi
10:00 am70 °FPassing clouds.N/A59%29.90 "Hg17 mi
9:00 am66 °FPassing clouds.N/A72%29.92 "Hg17 mi
8:00 am60 °FScattered clouds.N/A82%29.93 "Hg22 mi
7:00 am58 °FPartly sunny.N/A86%29.92 "Hg22 mi
6:00 am58 °FOvercast.N/A87%29.90 "Hg25 mi
5:00 am59 °FOvercast.N/A86%29.89 "Hg28 mi
4:00 am59 °FOvercast.N/A83%29.90 "Hg28 mi
3:00 am60 °FOvercast.N/A82%29.88 "Hg28 mi
2:00 am60 °FOvercast.N/A82%29.89 "Hg28 mi
1:00 am60 °FOvercast.N/A82%29.88 "Hg28 mi
12:00 am61 °FOvercast.N/A80%29.87 "Hg25 mi
11:00 pm
Thu, Jul 27
62 °FPassing clouds.N/A78%29.85 "Hg28 mi
10:00 pm65 °FOvercast.N/A71%29.84 "Hg28 mi
9:00 pm67 °FPassing clouds.N/A65%29.81 "Hg5 mi
8:00 pm70 °FOvercast.N/A56%29.80 "Hg25 mi
7:00 pm72 °FOvercast.N/A53%29.78 "Hg28 mi
6:00 pm73 °FOvercast.N/A46%29.79 "Hg25 mi
5:00 pm74 °FOvercast.N/A41%29.79 "Hg25 mi
4:00 pm76 °FOvercast.N/A34%29.78 "Hg19 mi
3:00 pm75 °FOvercast.N/A36%29.78 "Hg19 mi
Weather by CustomWeather, © 2017

See weather overviewHow to use our weather pages